Date String (YYYY-MM-DD hh:mm:ss) UTC,Instrument flags,Ambient pressure (hPa),Sample flow (lpm),Bypass flow (lpm),Sample temperature (°C),Ambient temperature (°C),ASC tube jacket temperature (°C),LED temperature (°C),Box temperature (°C),Sample RH (%),Span deviation,Mass concentration (μg/m³),Mass concentration (μg/m³),Mass concentration (μg/m³)
DateTimeUTC,F1_M11,P_M11,Q1_M11,Q2_M11,T1_M11,T2_M11,T3_M11,T4_M11,T5_M11,U1_M11,ZSPAN_M11,X0_M11,X2_M11,X1_M11
2022-09-21 21:00:00,,0833.6,5.01,0.00,30.5,28.9,00.0,39.2,32.3,27.2,-000.7,0015.83,0009.56,0008.22
2022-09-21 21:01:00,,0833.6,5.00,0.00,30.5,28.9,00.0,39.3,32.3,27.2,-000.7,0015.73,0009.54,0008.24
2022-09-21 21:02:00,,0833.6,5.01,0.00,30.5,29.0,00.0,39.3,32.3,27.2,-000.8,0015.82,0009.55,0008.24
2022-09-21 21:03:00,,0833.6,5.01,0.00,30.5,29.0,00.0,39.3,32.3,27.1,-000.9,0015.83,0009.52,0008.23
2022-09-21 21:04:00,,0833.6,4.99,0.00,30.5,28.9,00.0,39.3,32.3,27.1,-001.0,0015.62,0009.48,0008.22
2022-09-21 21:05:00,,0833.6,5.01,0.00,30.5,28.9,00.0,39.3,32.3,27.1,-001.0,0015.38,0009.49,0008.21
2022-09-21 21:06:00,,0833.6,4.99,0.00,30.5,28.9,00.0,39.2,32.3,27.2,-000.8,0015.12,0009.45,0008.20
2022-09-21 21:07:00,,0833.7,5.01,0.00,30.5,29.0,00.0,39.3,32.3,27.3,-001.1,0015.64,0009.43,0008.18
2022-09-21 21:08:00,,0833.6,5.01,0.00,30.5,29.0,00.0,39.3,32.3,27.4,-001.0,0015.85,0009.45,0008.16
2022-09-21 21:09:00,,0833.6,4.99,0.00,30.5,29.0,00.0,39.3,32.3,27.2,-001.2,0015.84,0009.43,0008.12
2022-09-21 21:10:00,,0833.6,4.99,0.00,30.5,29.0,00.0,39.3,32.3,27.3,-001.2,0015.79,0009.46,0008.09
2022-09-21 21:11:00,,0833.6,5.01,0.00,30.5,28.9,00.0,39.3,32.3,27.3,-001.1,0016.02,0009.47,0008.06
2022-09-21 21:12:00,,0833.6,5.00,0.00,30.5,28.9,00.0,39.3,32.3,27.4,-001.1,0016.09,0009.48,0008.02
2022-09-21 21:13:00,,0833.6,4.99,0.00,30.5,28.9,00.0,39.3,32.3,27.5,-000.7,0015.84,0009.42,0008.02
2022-09-21 21:14:00,,0833.6,5.01,0.00,30.5,28.8,00.0,39.3,32.3,27.5,-000.0,0015.81,0009.41,0008.03
2022-09-21 21:15:00,,0833.6,4.99,0.00,30.5,28.9,00.0,39.2,32.3,27.4,0000.3,0015.93,0009.42,0008.03
2022-09-21 21:16:00,,0833.6,5.02,0.00,30.5,28.9,00.0,39.2,32.3,27.3,0000.6,0015.71,0009.41,0008.04
2022-09-21 21:17:00,,0833.6,4.99,0.00,30.5,28.9,00.0,39.3,32.3,27.3,0000.3,0016.17,0009.42,0008.03
2022-09-21 21:18:00,,0833.6,5.01,0.00,30.5,28.9,00.0,39.2,32.3,27.5,0000.5,0015.90,0009.43,0008.01
2022-09-21 21:19:00,,0833.6,4.99,0.00,30.5,28.9,00.0,39.2,32.3,27.5,0000.8,0015.83,0009.38,0007.99
2022-09-21 21:20:00,,0833.5,5.00,0.00,30.5,29.0,00.0,39.3,32.3,27.4,0000.7,0016.05,0009.37,0007.99
2022-09-21 21:21:00,,0833.6,5.00,0.00,30.5,29.0,00.0,39.3,32.3,27.2,0000.8,0015.93,0009.30,0007.99
2022-09-21 21:22:00,,0833.6,4.99,0.00,30.5,29.0,00.0,39.3,32.3,27.1,0000.7,0016.14,0009.26,0007.99
2022-09-21 21:23:00,,0833.6,4.99,0.00,30.5,28.9,00.0,39.3,32.3,27.0,0000.9,0016.42,0009.23,0008.01
2022-09-21 21:24:00,,0833.6,5.00,0.00,30.5,28.9,00.0,39.2,32.3,26.9,0001.0,0016.54,0009.22,0008.01
2022-09-21 21:25:00,,0833.6,5.01,0.00,30.5,28.9,00.0,39.3,32.3,26.9,0000.7,0016.83,0009.27,0008.01
2022-09-21 21:26:00,,0833.6,5.01,0.00,30.5,29.0,00.0,39.3,32.3,27.1,0000.3,0016.87,0009.32,0008.01
2022-09-21 21:27:00,,0833.6,5.00,0.00,30.5,29.0,00.0,39.3,32.3,27.8,0000.2,0016.99,0009.38,0008.02
2022-09-21 21:28:00,,0833.6,5.01,0.00,30.5,29.0,00.0,39.3,32.3,27.4,0000.2,0016.93,0009.46,0008.04
2022-09-21 21:29:00,,0833.6,5.00,0.00,30.5,29.0,00.0,39.3,32.3,27.1,0000.2,0016.86,0009.49,0008.06
2022-09-21 21:30:00,,0833.6,4.99,0.00,30.5,29.0,00.0,39.3,32.3,26.9,-000.3,0016.70,0009.53,0008.08
2022-09-21 21:31:00,,0833.6,5.01,0.00,30.5,29.1,00.0,39.3,32.3,27.0,-000.9,0017.22,0009.60,0008.10
2022-09-21 21:32:00,,0833.6,5.00,0.00,30.5,29.0,00.0,39.3,32.3,27.1,-001.4,0018.03,0009.68,0008.12
2022-09-21 21:33:00,,0833.6,5.01,0.00,30.5,29.0,00.0,39.3,32.3,27.2,-001.4,0017.97,0009.79,0008.13
2022-09-21 21:34:00,,0833.5,5.00,0.00,30.5,29.0,00.0,39.3,32.3,27.2,-001.5,0017.86,0009.83,0008.16
2022-09-21 21:35:00,,0833.5,5.01,0.00,30.5,29.0,00.0,39.3,32.3,27.2,-001.6,0018.26,0009.84,0008.16
2022-09-21 21:36:00,,0833.5,4.99,0.00,30.5,29.1,00.0,39.3,32.3,27.0,-001.6,0018.65,0009.87,0008.15
2022-09-21 21:37:00,,0833.5,4.99,0.00,30.5,29.1,00.0,39.3,32.3,27.0,-001.7,0019.32,0009.89,0008.18
2022-09-21 21:38:00,,0833.5,5.02,0.00,30.5,29.1,00.0,39.3,32.4,26.9,-002.0,0019.47,0009.83,0008.18
2022-09-21 21:39:00,,0833.5,4.99,0.00,30.5,29.1,00.0,39.3,32.4,27.0,-002.0,0019.62,0009.84,0008.18
2022-09-21 21:40:00,,0833.5,5.00,0.00,30.6,29.1,00.0,39.3,32.4,26.9,-002.0,0019.60,0009.85,0008.19
2022-09-21 21:41:00,,0833.4,5.00,0.00,30.6,29.1,00.0,39.3,32.4,27.0,-002.0,0019.78,0009.89,0008.19
2022-09-21 21:42:00,,0833.4,5.00,0.00,30.6,29.1,00.0,39.3,32.4,27.0,-001.6,0019.34,0009.82,0008.19
2022-09-21 21:43:00,,0833.4,5.00,0.00,30.6,29.0,00.0,39.3,32.4,27.0,-001.4,0018.62,0009.75,0008.19
2022-09-21 21:44:00,,0833.4,5.00,0.00,30.6,29.0,00.0,39.3,32.4,27.0,-001.5,0018.62,0009.73,0008.19
2022-09-21 21:45:00,,0833.4,4.99,0.00,30.6,28.9,00.0,39.3,32.3,27.0,-001.4,0018.53,0009.73,0008.18
2022-09-21 21:46:00,,0833.4,5.01,0.00,30.6,29.0,00.0,39.3,32.4,27.0,-001.2,0018.53,0009.79,0008.20
2022-09-21 21:47:00,,0833.4,4.99,0.00,30.5,29.0,00.0,39.3,32.3,26.9,-001.3,0018.06,0009.76,0008.21
2022-09-21 21:48:00,,0833.4,5.00,0.00,30.6,29.0,00.0,39.3,32.3,26.9,-000.9,0017.32,0009.77,0008.21
2022-09-21 21:49:00,,0833.5,4.99,0.00,30.6,29.0,00.0,39.3,32.3,27.1,-000.3,0016.88,0009.74,0008.22
2022-09-21 21:50:00,,0833.4,5.01,0.00,30.6,29.0,00.0,39.3,32.4,27.0,-000.3,0016.73,0009.70,0008.23
2022-09-21 21:51:00,,0833.4,4.99,0.00,30.6,29.0,00.0,39.3,32.3,27.0,-000.2,0016.54,0009.64,0008.23
2022-09-21 21:52:00,,0833.4,5.01,0.00,30.5,28.9,00.0,39.3,32.3,27.0,0000.4,0016.32,0009.54,0008.22
2022-09-21 21:53:00,,0833.4,4.99,0.00,30.5,28.9,00.0,39.3,32.3,27.2,0000.7,0016.43,0009.57,0008.22
2022-09-21 21:54:00,,0833.4,5.01,0.00,30.5,28.9,00.0,39.3,32.3,27.2,0000.4,0016.17,0009.61,0008.22
2022-09-21 21:55:00,,0833.4,5.00,0.00,30.5,28.9,00.0,39.3,32.3,27.1,0000.2,0015.97,0009.57,0008.22
2022-09-21 21:56:00,,0833.2,4.99,0.00,30.5,28.8,00.0,39.3,32.3,27.2,0000.3,0015.97,0009.58,0008.23
2022-09-21 21:57:00,,0833.3,5.01,0.00,30.5,28.8,00.0,39.3,32.3,27.3,-000.0,0015.46,0009.51,0008.23
2022-09-21 21:58:00,,0833.3,4.99,0.00,30.5,28.8,00.0,39.3,32.3,27.5,-000.2,0015.39,0009.52,0008.22
2022-09-21 21:59:00,,0833.3,5.00,0.00,30.5,28.9,00.0,39.3,32.3,28.0,-000.4,0015.30,0009.45,0008.20
